Tacoma Narrows, WA
on Sunday, January 20, 2013

Sunday
Previous Day Next Day
Daily Summary
 ActualAverageRecord
Temperature
Mean Temperature °F °F  
Max Temperature 39°F 45°F 55°F (2005)
Min Temperature 33°F 37°F 32°F (2009)
Degree Days
Heating Degree Days 29    
Moisture
Dew Point 34°F   
Average Humidity 93    
Maximum Humidity 100    
Minimum Humidity 86    
Precipitation
Precipitation 0.00 in in in ()
Wind
Wind Speed 1 mph   
Max Wind Speed 5 mph   
Max Gust Speed mph   
Visibility 1 miles   
Events Fog   
Averages and records for this station are not official NWS values.
Key: T is trace of precipitation, MM is missing value
Source: NWS Daily Summary
Seasonal Weather Averages
Time(PST)TemperatureDew PointHumidity Pressure Visibility Wind DirectionWind SpeedGust SpeedPrecipitationEvents Conditions
12:39 AM 35.6°F 33.8°F 93% 30.37 in 0.2 miles Calm Calm - N/A Fog Fog
12:53 AM 35.1°F 34.0°F 96% 30.39 in 0.2 miles Calm Calm - N/A Fog Fog
1:27 AM 35.6°F 33.8°F 93% 30.37 in 0.2 miles Calm Calm - N/A Fog Fog
1:53 AM 35.1°F 34.0°F 96% 30.39 in 0.2 miles Calm Calm - N/A Fog Fog
2:53 AM 35.1°F 34.0°F 96% 30.40 in 0.2 miles Calm Calm - N/A Fog Fog
3:53 AM 36.0°F 34.0°F 93% 30.39 in 0.2 miles Calm Calm - N/A Fog Fog
4:53 AM 35.1°F 34.0°F 96% 30.38 in 0.2 miles Calm Calm - N/A Fog Fog
5:30 AM 35.6°F 33.8°F 93% 30.36 in 0.2 miles Calm Calm - N/A Fog Fog
5:53 AM 35.1°F 34.0°F 96% 30.38 in 0.2 miles NNE 3.5 mph - N/A Fog Fog
6:09 AM 35.6°F 33.8°F 93% 30.36 in 0.2 miles NE 3.5 mph - N/A Fog Fog
6:32 AM 35.6°F 33.8°F 93% 30.36 in 0.5 miles North 4.6 mph - N/A Fog Fog
6:50 AM 35.6°F 33.8°F 93% 30.36 in 1.5 miles NNE 4.6 mph - N/A   Overcast
6:53 AM 34.0°F 33.1°F 96% 30.38 in 1.5 miles NNE 3.5 mph - N/A   Overcast
7:18 AM 33.8°F 33.8°F 100% 30.36 in 0.5 miles ENE 3.5 mph - N/A Fog Fog
7:53 AM 35.1°F 33.1°F 92% 30.38 in 1.0 miles Calm Calm - N/A   Mist
8:18 AM 35.6°F 33.8°F 93% 30.37 in 0.5 miles Variable 3.5 mph - N/A Fog Fog
8:53 AM 35.1°F 34.0°F 96% 30.39 in 0.5 miles ENE 3.5 mph - N/A Fog Fog
9:05 AM 35.6°F 33.8°F 93% 30.38 in 1.8 miles NNE 4.6 mph - N/A   Overcast
9:23 AM 35.6°F 33.8°F 93% 30.38 in 0.8 miles NNE 4.6 mph - N/A   Overcast
9:53 AM 33.8°F 33.8°F 100% 30.39 in 0.2 miles NE 3.5 mph - N/A Fog Fog
10:53 AM 35.1°F 34.0°F 96% 30.40 in 0.2 miles Calm Calm - N/A Fog Fog
11:53 AM 36.0°F 34.0°F 93% 30.36 in 0.5 miles Calm Calm - N/A Fog Fog
12:53 PM 37.0°F 34.0°F 89% 30.34 in 0.5 miles Calm Calm - N/A Fog Fog
1:53 PM 37.9°F 35.1°F 89% 30.32 in 0.5 miles Calm Calm - N/A Fog Fog
2:22 PM 37.4°F 33.8°F 87% 30.30 in 3.0 miles Calm Calm - N/A   Overcast
2:53 PM 39.0°F 35.1°F 86% 30.32 in 3.0 miles Calm Calm - N/A   Overcast
3:53 PM 37.9°F 34.0°F 86% 30.31 in 6.0 miles NNE 3.5 mph - N/A   Overcast
4:53 PM 37.9°F 35.1°F 89% 30.30 in 5.0 miles Calm Calm - N/A   Overcast
5:36 PM 37.4°F 35.6°F 93% 30.28 in 5.0 miles Calm Calm - N/A   Overcast
5:53 PM 37.0°F 35.1°F 93% 30.29 in 5.0 miles Calm Calm - N/A   Overcast
6:53 PM 37.0°F 35.1°F 93% 30.28 in 3.0 miles Calm Calm - N/A   Overcast
7:53 PM 37.0°F 35.1°F 93% 30.27 in 0.5 miles Calm Calm - N/A Fog Fog
8:46 PM 37.4°F 35.6°F 93% 30.27 in 1.2 miles Calm Calm - N/A   Overcast
8:53 PM 37.0°F 35.1°F 93% 30.28 in 1.0 miles Calm Calm - N/A   Mist
9:31 PM 37.4°F 35.6°F 93% 30.27 in 0.8 miles Calm Calm - N/A   Mist
9:53 PM 37.0°F 35.1°F 93% 30.28 in 0.5 miles Calm Calm - N/A Fog Fog
10:53 PM 37.0°F 35.1°F 93% 30.28 in 0.5 miles Calm Calm - N/A Fog Fog
11:53 PM 37.0°F 35.1°F 93% 30.27 in 0.5 miles Calm Calm - N/A Fog Fog
Moon Phase
Jan. 20 Jan. 26 Feb. 03 Feb. 10 Feb. 17
Sunrise:07:48 AM (PST) Moon Rise:12:00 PM (PST)
Sunset:04:54 PM (PST) Moon Set:02:24 AM (PST)

Copyright © 2014 The Weather Underground, Inc.